Regional Weather Roundup
Issued by NWS Bismarck, ND

Home | Current Version | Previous Version | Text Only | Print | Product List | Glossary On
Versions: 1 2 3 4 5 6 7 8 9 10 11 12 13 14 15 16 17 18 19 20 21 22 23 24 25 26 27 28 29 30 31 32 33 34 35 36 37 38 39 40 41 42 43 44 45 46 47 48 49 50
316
ASUS43 KBIS 261502
RWRBIS

NWR BROADCAST TEXT
NATIONAL WEATHER SERVICE BISMARCK ND
1000 AM CDT THU MAY 26 2016

NOTE: "FAIR" INDICATES FEW OR NO CLOUDS BELOW 12,000 FEET WITH NO
SIGNIFICANT WEATHER AND/OR OBSTRUCTIONS TO VISIBILITY.


CITY           SKY/WX    TMP DP  RH WIND       PRES   REMARKS
WILLISTON      CLOUDY    50  48  93 SW7       29.82R FOG
MINOT          CLOUDY    61  55  81 NW8       29.77S
MINOT AFB      NOT AVBL
BISMARCK       PTSUNNY   62  49  62 W3        29.83S
DICKINSON      SUNNY     57  45  64 NW10      29.83S
GARRISON         N/A     57  52  83 W9        29.80S
HETTINGER ARPT SUNNY     60  47  61 W13       29.87F
JAMESTOWN      CLOUDY    57  53  86 W14       29.79R
CARRINGTON     CLOUDY    57  55  94 W15       29.80S FOG
HAZEN          FAIR      57  50  77 W9        29.84S
MANDAN         PTSUNNY   63  48  59 W9        29.84R
OAKES            N/A    N/A N/A N/A MISG        N/A
STANLEY        CLOUDY    54  54 100 W6        29.82S FOG
$$

CITY           SKY/WX    TMP DP  RH WIND       PRES   REMARKS
GRAND FORKS    PTSUNNY   64  56  75 W14       29.72S
GRAND FORKS AF PTSUNNY   63  58  82 W12       29.73S
DEVILS LAKE    CLOUDY    58  54  86 NW6       29.76S
FARGO          CLOUDY    60  56  86 SW7       29.76S
CAVALIER       CLOUDY    61  57  88 W13       29.69S
GRAFTON        PTSUNNY   63  57  82 W16G22    29.72S
GWINNER        FAIR      63  54  72 W20       29.81R
LANGDON        CLOUDY    57  55  94 W15       29.72F
$$

CITY           SKY/WX    TMP DP  RH WIND       PRES   REMARKS
ABERDEEN       SUNNY     65  52  62 SW9       29.85S
MOBRIDGE       SUNNY     63  50  62 S7        29.84S
BUFFALO          N/A     60  43  53 W9        29.82S
RAPID CITY     MOSUNNY   62  42  47 N13G20    29.90F
GLASGOW        LGT RAIN  50  47  89 NW7       29.85S FOG
SIDNEY         CLOUDY    57  48  72 SW10      29.82S
WOLF POINT     CLOUDY    57  49  74 W10       29.82F
GLENDIVE       CLOUDY    54  46  76 W6        29.88R
MILES CITY     CLOUDY    56  45  66 W9        29.88S
BAKER          CLOUDY    55  44  66 W12       29.88R
$$

CITY           SKY/WX    TMP DP  RH WIND       PRES   REMARKS
BILLINGS       PTSUNNY   56  44  64 SW7       29.95S
GREAT FALLS    CLOUDY    51  45  79 SW7       29.97S
$$





USA.gov is the U.S. government's official web portal to all federal, state and local government web resources and services.